Flag for U.S.A. Weather past 2 weeks in Howell, Michigan, U.S.A.

Now
62 °F

Cloudy.


Feels Like: 62 °F
Forecast: 55 / 66 °F
Wind: 7 mph from North

Location: Livingston County Airport

Current Time: Jul 28, 2014 at 11:18:54 AM

Latest Report: Jul 28, 2014 at 10:54 AM


Visibility: 10 mi

Pressure: 29.92 "Hg

Humidity: 80%

Dew point: 56 °F

Location of HowellLocation

Historic Weather in Howell — Graph

°F

Howell temperature yesterday

Maximum temperature yesterday: 83 °F (at 2:14 PM)
Minimum temperature yesterday: 59 °F (at 9:54 PM)
Average temperature yesterday: 67 °F

Past Weeks' High & Low Weather Summary

 TemperatureHumidityPressure
High84 °F (Jul 22, 12:55 PM)100% (Jul 27, 1:57 AM)30.24 "Hg (Jul 27, 1:57 AM)
Low49 °F (Jul 17, 5:55 AM)35% (Jul 18, 3:54 PM)29.62 "Hg (Jul 27, 3:35 PM)
Average66 °F72%29.99 "Hg
* Reported Jul 13 10:15 AM — Jul 28 10:15 AM, Howell, Weather by CustomWeather, © 2014

Note: Actual official high and low records may vary slightly from our data, if they occured in-between our weather recording intervals... More about our weather records

Advertising

Howell weather history for previous 24 hours

 ConditionsComfort  
Time TempWeatherWind HumidityBarometerVisibility
10:15 AM
Jul 28
62 °FCloudy.8 mph81%29.91 "Hg10 mi
9:54 AM61 °FMostly cloudy.6 mph85%29.91 "Hg10 mi
9:34 AM60 °FMostly cloudy.7 mph81%29.91 "Hg10 mi
9:15 AM61 °FCloudy.9 mph79%29.90 "Hg10 mi
8:54 AM60 °FOvercast.10 mph83%29.89 "Hg10 mi
8:34 AM59 °FPartly sunny.7 mph85%29.88 "Hg10 mi
8:15 AM59 °FPartly sunny.8 mph89%29.87 "Hg10 mi
7:54 AM59 °FMore clouds than sun.6 mph91%29.86 "Hg10 mi
7:34 AM59 °FMore clouds than sun.8 mph92%29.85 "Hg10 mi
7:15 AM59 °FMostly cloudy.7 mph92%29.85 "Hg10 mi
6:54 AM59 °FMostly cloudy.7 mph92%29.84 "Hg10 mi
6:35 AM60 °FOvercast.10 mph92%29.83 "Hg10 mi
6:15 AM60 °FMostly cloudy.12 mph94%29.82 "Hg10 mi
5:54 AM59 °FMostly cloudy.8 mph95%29.81 "Hg10 mi
5:35 AM59 °FPartly cloudy.7 mph94%29.80 "Hg10 mi
5:15 AM60 °FPartly cloudy.8 mph94%29.79 "Hg10 mi
4:54 AM60 °FOvercast.8 mph94%29.78 "Hg10 mi
4:35 AM60 °FOvercast.10 mph94%29.77 "Hg10 mi
4:15 AM61 °FMostly cloudy.13 mph94%29.76 "Hg10 mi
3:54 AM61 °FRain. Mostly cloudy.13 mph95%29.75 "Hg4 mi
3:35 AM61 °FDrizzle. Low clouds.8 mph96%29.75 "Hg7 mi
3:15 AM62 °FDrizzle. Low clouds.12 mph95%29.74 "Hg7 mi
2:54 AM62 °FDrizzle. Low clouds.10 mph95%29.75 "Hg10 mi
2:35 AM62 °FLight rain. Low clouds.9 mph95%29.75 "Hg10 mi
2:14 AM61 °FLight rain. Mostly cloudy.7 mph96%29.75 "Hg10 mi
1:54 AM61 °FMostly cloudy.7 mph96%29.75 "Hg10 mi
1:35 AM60 °FMostly cloudy.7 mph96%29.75 "Hg10 mi
1:14 AM60 °FMostly cloudy.6 mph96%29.75 "Hg10 mi
12:54 AM60 °FMostly cloudy.7 mph96%29.75 "Hg10 mi
12:35 AM60 °FMostly cloudy.8 mph97%29.75 "Hg10 mi
12:14 AM59 °FPartly cloudy.8 mph97%29.75 "Hg10 mi
11:54 PM
Jul 27
60 °FPartly cloudy.6 mph97%29.76 "Hg10 mi
11:35 PM60 °FOvercast.8 mph96%29.77 "Hg10 mi
11:14 PM60 °FMostly cloudy.8 mph97%29.76 "Hg10 mi
10:35 PM59 °FOvercast.6 mph97%29.73 "Hg10 mi
10:14 PM59 °FPassing clouds.7 mph97%29.71 "Hg10 mi
9:54 PM59 °FRain. Broken clouds.5 mph97%29.70 "Hg10 mi
9:35 PM59 °FMostly cloudy.No wind96%29.69 "Hg10 mi
9:14 PM60 °FMostly cloudy.No wind95%29.70 "Hg10 mi
8:54 PM59 °FLight rain. Broken clouds.3 mph95%29.69 "Hg10 mi
8:35 PM60 °FLight rain. More clouds than sun.3 mph94%29.71 "Hg10 mi
8:14 PM60 °FCloudy.No wind94%29.71 "Hg10 mi
7:54 PM60 °FHeavy rain. Cloudy.3 mph92%29.72 "Hg4 mi
7:35 PM60 °FLight rain. Cloudy.5 mph94%29.70 "Hg10 mi
7:14 PM60 °FRain. More clouds than sun.12 mph92%29.72 "Hg3 mi
6:54 PM61 °FRain. Cloudy.7 mph91%29.73 "Hg10 mi
6:35 PM64 °FLight rain. Cloudy.13 mph84%29.68 "Hg10 mi
6:14 PM69 °FLight rain. Partly sunny.7 mph86%29.63 "Hg10 mi
5:55 PM70 °FScattered clouds.3 mph84%29.62 "Hg10 mi
5:35 PM69 °FScattered clouds.No wind87%29.63 "Hg10 mi
5:14 PM67 °FScattered clouds.6 mph92%29.63 "Hg10 mi
4:55 PM65 °FBroken clouds.10 mph95%29.64 "Hg10 mi
4:35 PM63 °FLight rain. Mostly cloudy.5 mph92%29.67 "Hg10 mi
4:14 PM64 °FLight rain. Cloudy.7 mph93%29.64 "Hg5 mi
3:55 PM69 °FHeavy rain. Cloudy.15 mph73%29.65 "Hg5 mi
3:35 PM79 °FLight rain. Broken clouds.5 mph56%29.62 "Hg10 mi
3:14 PM81 °FScattered clouds.9 mph50%29.63 "Hg10 mi
2:55 PM82 °FScattered clouds.7 mph49%29.66 "Hg10 mi
2:35 PM82 °FScattered clouds.8 mph52%29.68 "Hg10 mi
2:14 PM83 °FScattered clouds.8 mph52%29.69 "Hg10 mi
1:55 PM80 °FScattered clouds.6 mph60%29.70 "Hg10 mi
1:34 PM82 °FScattered clouds.8 mph57%29.70 "Hg10 mi
1:14 PM80 °FScattered clouds.3 mph59%29.71 "Hg10 mi
12:55 PM79 °FScattered clouds.8 mph65%29.72 "Hg7 mi
12:34 PM79 °FScattered clouds.6 mph68%29.73 "Hg7 mi
12:14 PM76 °FLight rain. Cloudy.5 mph71%29.74 "Hg7 mi
11:55 AM78 °FBroken clouds.6 mph64%29.75 "Hg10 mi
11:34 AM78 °FScattered clouds.7 mph67%29.75 "Hg10 mi
11:14 AM77 °FScattered clouds.7 mph74%29.74 "Hg7 mi
Weather by CustomWeather, © 2014

See weather overviewHow to use our weather pages